Weather in Malcesine

Italy     45°46′01″N   10°48′41″E
temp.,
°C
wind,
m/s
gust,
m/s
humid.,
%
clouds,
%
prec.,
mm/h
press.,
hPa
HPBL,
m
21 june, mon
mon2123:00+20n227632 0.1 101117
02:00+19nne338037 0.1 101029
05:00+17n22850 0.4 101132
08:00+19nne34820 0.7 1010142
11:00+22ssw33670 0.2 1011554
14:00+23s23580 0.2 1010822
17:00+23s23581 0.0 1009501
20:00+23nw11690 0.0 100913
22 june, tue
tue2223:00+19nne22720 0.0 101018
02:00+18nne33760 0.0 101038
05:00+17nne45790 0.0 101170
08:00+20ne33701 0.0 1011208
11:00+21ssw33640 0.0 1012643
14:00+22s34620 0.0 1012656
17:00+23s245714 0.0 1013573
20:00+22ne01625 0.0 101212
23 june, wed
wed2323:00+18nne32653 0.0 101422
02:00+17nne44685 0.0 101560
05:00+16nne56735 0.0 101591
08:00+19nne66645 0.0 1016206
11:00+24se114710 0.0 1016665
14:00+23sw334988 0.0 1016648
17:00+24wnw1152100 0.1 1016359
20:00+22n226338 0.1 101614
24 june, thu
thu2423:00+19n336812 0.0 101735
02:00+16nne457713 0.6 101774
05:00+15nne68851 1.1 1017127
08:00+17nne67830 1.7 1017201
11:00+23se01630 0.3 1016533
14:00+22ssw23570 0.8 1016992
17:00+23s24530 0.3 1015946
20:00+22sw11670 0.3 101525
25 june, fri
fri2523:00+17n22700 0.0 101627
02:00+16nne44683 0.0 101673
05:00+15nne567231 0.0 1016115
08:00+18nne56635 0.0 1016222
11:00+21s33546 0.0 1016863
14:00+19sw23720 1.0 1016512
17:00+22nw235599 1.3 1014686
20:00+18nne2276100 5.1 101558